^^
Saratoga-Weather Station Historical Data
Daily Summary for April 3, 2021 Units:  Metric    English   Both
Daily Weekly Monthly Yearly Custom
  High: Low: Average:
Temperature: 21.4 °C 12.2 °C 17.1 °C
Dew Point: 15.4 °C 10.9 °C 13.2 °C
Humidity: 93% 63% 79%
Wind Speed: 20.9km/h 0km/h 4.4km/h
Wind Gust: 29km/h - -
Wind- - South
Pressure: 1013.5 hPa 998.3 hPa -
Precipitation: 6.1 mm    
Historical Graphs
 
 
Tabular Data for April 3, 2021
Time Temperature Dew Point Pressure Wind Wind Speed Wind Gust Humidity Rainfall Rate (Hourly) solar
00:02 18.2 °C 13.3 °C 1002.0 hPa NE 9.7 km/h 9.7 km/h 73% 0.0 mm 0 W/m2
00:07 18.3 °C 13.4 °C 1001.7 hPa ESE 4.7 km/h 11.3 km/h 73% 0.0 mm 0 W/m2
00:12 18.3 °C 13.4 °C 1001.7 hPa North 7.9 km/h 17.7 km/h 73% 0.0 mm 0 W/m2
00:17 18.4 °C 13.3 °C 1001.7 hPa NE 3.2 km/h 6.4 km/h 72% 0.0 mm 0 W/m2
00:22 18.3 °C 13 °C 1001.7 hPa NNW 4.7 km/h 17.7 km/h 71% 0.0 mm 0 W/m2
00:27 18.4 °C 13 °C 1001.4 hPa NW 1.4 km/h 11.3 km/h 71% 0.0 mm 0 W/m2
00:32 18.5 °C 13.1 °C 1001.4 hPa NE 7.9 km/h 11.3 km/h 71% 0.0 mm 0 W/m2
00:37 18.6 °C 13 °C 1001.4 hPa ENE 3.2 km/h 8 km/h 70% 0.0 mm 0 W/m2
00:42 18.7 °C 12.9 °C 1001.4 hPa ENE 3.2 km/h 14.5 km/h 69% 0.0 mm 0 W/m2
00:47 18.7 °C 12.9 °C 1001.4 hPa NE 3.2 km/h 11.3 km/h 69% 0.0 mm 0 W/m2
00:52 18.7 °C 12.9 °C 1001.4 hPa North 4.7 km/h 11.3 km/h 69% 0.0 mm 0 W/m2
00:57 18.7 °C 12.7 °C 1001.4 hPa WSW 1.4 km/h 19.3 km/h 68% 0.0 mm 0 W/m2
01:02 18.8 °C 12.8 °C 1001.4 hPa North 1.4 km/h 11.3 km/h 68% 0.0 mm 0 W/m2
01:07 18.7 °C 12.7 °C 1001.4 hPa NE 3.2 km/h 19.3 km/h 68% 0.0 mm 0 W/m2
01:12 18.7 °C 12.7 °C 1001.4 hPa NE 6.4 km/h 6.4 km/h 68% 0.0 mm 0 W/m2
01:17 18.6 °C 12.6 °C 1001.4 hPa NNW 3.2 km/h 12.9 km/h 68% 0.0 mm 0 W/m2
01:22 18.7 °C 12.7 °C 1001.7 hPa WSW 4.7 km/h 9.7 km/h 68% 0.0 mm 0 W/m2
01:27 18.7 °C 12.4 °C 1001.4 hPa NNE 1.4 km/h 6.4 km/h 67% 0.0 mm 0 W/m2
01:32 18.7 °C 12.7 °C 1001.4 hPa North 4.7 km/h 6.4 km/h 68% 0.0 mm 0 W/m2
01:37 18.7 °C 12.7 °C 1001.4 hPa NNE 7.9 km/h 9.7 km/h 68% 0.0 mm 0 W/m2
01:42 18.7 °C 12.7 °C 1001.4 hPa ENE 1.4 km/h 8 km/h 68% 0.0 mm 0 W/m2
01:47 18.6 °C 12.6 °C 1001.4 hPa ENE 1.4 km/h 6.4 km/h 68% 0.0 mm 0 W/m2
01:52 18.7 °C 12.7 °C 1001.4 hPa ENE 1.4 km/h 16.1 km/h 68% 0.0 mm 0 W/m2
01:57 18.7 °C 12.4 °C 1001.4 hPa ESE 4.7 km/h 11.3 km/h 67% 0.0 mm 0 W/m2
02:02 18.7 °C 12.4 °C 1001.4 hPa NW 3.2 km/h 16.1 km/h 67% 0.0 mm 0 W/m2
02:07 18.8 °C 12.5 °C 1001.4 hPa ENE 1.4 km/h 14.5 km/h 67% 0.0 mm 0 W/m2
02:12 18.9 °C 12.4 °C 1001.4 hPa NW 3.2 km/h 16.1 km/h 66% 0.0 mm 0 W/m2
02:17 18.9 °C 12.6 °C 1001.4 hPa NNE 1.4 km/h 6.4 km/h 67% 0.0 mm 0 W/m2
02:22 18.9 °C 12.6 °C 1001.4 hPa NNW 3.2 km/h 12.9 km/h 67% 0.0 mm 0 W/m2
02:27 18.9 °C 12.4 °C 1001.4 hPa NW 1.4 km/h 8 km/h 66% 0.0 mm 0 W/m2
02:32 18.9 °C 12.6 °C 1001.4 hPa North 3.2 km/h 12.9 km/h 67% 0.0 mm 0 W/m2
02:37 18.9 °C 12.6 °C 1001.4 hPa North 3.2 km/h 4.8 km/h 67% 0.0 mm 0 W/m2
02:42 18.9 °C 12.6 °C 1001.4 hPa NNW 1.4 km/h 9.7 km/h 67% 0.0 mm 0 W/m2
02:47 18.8 °C 12.5 °C 1001.0 hPa North 3.2 km/h 6.4 km/h 67% 0.0 mm 0 W/m2
02:52 18.8 °C 12.5 °C 1001.0 hPa NE 1.4 km/h 6.4 km/h 67% 0.0 mm 0 W/m2
02:57 18.8 °C 12.5 °C 1001.0 hPa South 3.2 km/h 11.3 km/h 67% 0.0 mm 0 W/m2
03:02 18.8 °C 12.5 °C 1001.0 hPa North 3.2 km/h 4.8 km/h 67% 0.0 mm 0 W/m2
03:07 18.9 °C 12.6 °C 1000.7 hPa NNE 3.2 km/h 11.3 km/h 67% 0.0 mm 0 W/m2
03:12 18.9 °C 12.6 °C 1000.7 hPa Calm   8 km/h 67% 0.0 mm 0 W/m2
03:17 18.9 °C 12.6 °C 1000.7 hPa NE 6.4 km/h 9.7 km/h 67% 0.0 mm 0 W/m2
03:22 19 °C 12.5 °C 1000.7 hPa ENE 6.4 km/h 8 km/h 66% 0.0 mm 0 W/m2
03:27 19.1 °C 12.6 °C 1000.7 hPa East 3.2 km/h 11.3 km/h 66% 0.0 mm 0 W/m2
03:32 19.1 °C 12.6 °C 1000.3 hPa North 1.4 km/h 6.4 km/h 66% 0.0 mm 0 W/m2
03:37 19.1 °C 12.6 °C 1000.3 hPa East 1.4 km/h 6.4 km/h 66% 0.0 mm 0 W/m2
03:42 19.1 °C 12.6 °C 1000.3 hPa NE 3.2 km/h 4.8 km/h 66% 0.0 mm 0 W/m2
03:47 19 °C 12.7 °C 1000.3 hPa ENE 3.2 km/h 4.8 km/h 67% 0.0 mm 0 W/m2
03:52 18.9 °C 12.6 °C 1000.3 hPa ENE 4.7 km/h 9.7 km/h 67% 0.0 mm 0 W/m2
03:57 19 °C 12.7 °C 1000.3 hPa East 6.4 km/h 11.3 km/h 67% 0.0 mm 0 W/m2
04:02 19 °C 12.7 °C 1000.0 hPa ESE 4.7 km/h 12.9 km/h 67% 0.0 mm 0 W/m2
04:07 19 °C 12.7 °C 1000.0 hPa NE 6.4 km/h 8 km/h 67% 0.0 mm 0 W/m2
04:12 18.9 °C 12.6 °C 1000.0 hPa ESE 9.7 km/h 14.5 km/h 67% 0.0 mm 0 W/m2
04:17 19 °C 12.7 °C 1000.0 hPa East 1.4 km/h 14.5 km/h 67% 0.0 mm 0 W/m2
04:22 19 °C 12.7 °C 999.7 hPa ENE 1.4 km/h 16.1 km/h 67% 0.0 mm 0 W/m2
04:27 19 °C 13 °C 999.7 hPa ENE 4.7 km/h 8 km/h 68% 0.0 mm 0 W/m2
04:32 19 °C 13 °C 999.7 hPa East 1.4 km/h 3.2 km/h 68% 0.0 mm 0 W/m2
04:37 19 °C 13 °C 999.7 hPa ENE 6.4 km/h 14.5 km/h 68% 0.0 mm 0 W/m2
04:42 19.1 °C 13.1 °C 999.7 hPa ENE 7.9 km/h 11.3 km/h 68% 0.0 mm 0 W/m2
04:47 19.2 °C 13.1 °C 999.3 hPa East 11.1 km/h 14.5 km/h 68% 0.0 mm 0 W/m2
04:52 19.2 °C 13.1 °C 999.3 hPa East 4.7 km/h 19.3 km/h 68% 0.0 mm 0 W/m2
04:57 19.2 °C 13.1 °C 999.3 hPa NNE 6.4 km/h 12.9 km/h 68% 0.0 mm 0 W/m2
05:02 19.2 °C 13.1 °C 999.3 hPa ENE 11.1 km/h 19.3 km/h 68% 0.0 mm 0 W/m2
05:07 19.3 °C 13.2 °C 999.0 hPa ESE 11.1 km/h 11.3 km/h 68% 0.0 mm 0 W/m2
05:12 19.3 °C 13.2 °C 999.0 hPa East 3.2 km/h 6.4 km/h 68% 0.0 mm 0 W/m2
05:17 19.3 °C 13.2 °C 999.0 hPa East 14.3 km/h 17.7 km/h 68% 0.0 mm 0 W/m2
05:22 19.4 °C 13.3 °C 999.0 hPa ESE 4.7 km/h 14.5 km/h 68% 0.0 mm 0 W/m2
05:27 19.4 °C 13.3 °C 998.6 hPa North 17.7 km/h 17.7 km/h 68% 0.0 mm 0 W/m2
05:32 19.5 °C 13.4 °C 999.0 hPa NNW 3.2 km/h 14.5 km/h 68% 0.0 mm 0 W/m2
05:37 19.5 °C 13.2 °C 999.0 hPa ENE 16.3 km/h 16.1 km/h 67% 0.0 mm 0 W/m2
05:42 19.6 °C 13.3 °C 999.0 hPa NW 4.7 km/h 8 km/h 67% 0.0 mm 0 W/m2
05:48 19.6 °C 13.3 °C 998.6 hPa NE 6.4 km/h 9.7 km/h 67% 0.0 mm 0 W/m2
05:53 19.7 °C 13.4 °C 998.6 hPa East 7.9 km/h 9.7 km/h 67% 0.0 mm 0 W/m2
05:58 19.7 °C 13.4 °C 998.6 hPa North 6.4 km/h 20.9 km/h 67% 0.0 mm 0 W/m2
06:03 19.7 °C 13.4 °C 999.0 hPa SE 4.7 km/h 9.7 km/h 67% 0.0 mm 0 W/m2
06:08 19.7 °C 13.4 °C 999.0 hPa NNW 6.4 km/h 20.9 km/h 67% 0.0 mm 0 W/m2
06:13 19.6 °C 13.5 °C 998.6 hPa WNW 14.3 km/h 19.3 km/h 68% 0.0 mm 0 W/m2
06:18 19.5 °C 13.4 °C 998.6 hPa ESE 3.2 km/h 8 km/h 68% 0.0 mm 0 W/m2
06:23 19.4 °C 13.3 °C 998.6 hPa NNE 3.2 km/h 9.7 km/h 68% 0.0 mm 0 W/m2
06:28 19.4 °C 13.3 °C 998.6 hPa East 6.4 km/h 8 km/h 68% 0.0 mm 0 W/m2
06:33 19.4 °C 13.1 °C 998.6 hPa NE 9.7 km/h 16.1 km/h 67% 0.0 mm 0 W/m2
06:38 19.4 °C 13.3 °C 998.6 hPa NNW 4.7 km/h 9.7 km/h 68% 0.0 mm 0 W/m2
06:43 19.4 °C 13.3 °C 998.3 hPa SE 11.1 km/h 14.5 km/h 68% 0.0 mm 0 W/m2
06:48 19.3 °C 13 °C 998.3 hPa NW 4.7 km/h 12.9 km/h 67% 0.0 mm 0 W/m2
06:53 19.4 °C 13.1 °C 998.6 hPa NNW 9.7 km/h 14.5 km/h 67% 0.0 mm 0 W/m2
06:58 19.4 °C 13.1 °C 998.6 hPa ENE 4.7 km/h 17.7 km/h 67% 0.0 mm 0 W/m2
07:03 19.3 °C 13.2 °C 998.6 hPa North 6.4 km/h 14.5 km/h 68% 0.0 mm 0 W/m2
07:08 19.2 °C 13.4 °C 998.6 hPa NNW 3.2 km/h 17.7 km/h 69% 0.0 mm 0 W/m2
07:13 19.1 °C 13.5 °C 998.6 hPa North 7.9 km/h 8 km/h 70% 0.0 mm 0 W/m2
07:18 18.9 °C 13.3 °C 998.6 hPa ENE 1.4 km/h 6.4 km/h 70% 0.0 mm 0 W/m2
07:23 18.8 °C 13 °C 998.6 hPa NE 4.7 km/h 11.3 km/h 69% 0.0 mm 0 W/m2
07:28 18.9 °C 12.9 °C 998.6 hPa ENE 4.7 km/h 8 km/h 68% 0.0 mm 0 W/m2
07:33 19.1 °C 13.1 °C 998.6 hPa NNE 3.2 km/h 14.5 km/h 68% 0.0 mm 0 W/m2
07:38 19.2 °C 13.1 °C 998.6 hPa NE 3.2 km/h 4.8 km/h 68% 0.0 mm 0 W/m2
07:43 19.2 °C 13.1 °C 998.6 hPa NE 7.9 km/h 11.3 km/h 68% 0.0 mm 0 W/m2
07:48 19.3 °C 13 °C 998.3 hPa ENE 7.9 km/h 14.5 km/h 67% 0.0 mm 0 W/m2
07:53 19.3 °C 13 °C 998.3 hPa NE 11.1 km/h 16.1 km/h 67% 0.0 mm 0 W/m2
07:58 19.3 °C 13 °C 998.6 hPa ESE 13 km/h 19.3 km/h 67% 0.0 mm 5 W/m2
08:03 19.4 °C 13.3 °C 998.6 hPa North 1.4 km/h 16.1 km/h 68% 0.0 mm 0 W/m2
08:08 19.4 °C 13.3 °C 999.0 hPa NE 3.2 km/h 19.3 km/h 68% 0.0 mm 5 W/m2
08:13 19.5 °C 13.4 °C 999.0 hPa NNE 3.2 km/h 6.4 km/h 68% 0.0 mm 11 W/m2
08:18 19.7 °C 13.6 °C 999.0 hPa NE 3.2 km/h 20.9 km/h 68% 0.0 mm 12 W/m2
08:23 19.6 °C 13.5 °C 999.0 hPa NE 4.7 km/h 20.9 km/h 68% 0.0 mm 18 W/m2
08:28 19.5 °C 13.9 °C 999.0 hPa NNW 3.2 km/h 8 km/h 70% 0.0 mm 18 W/m2
08:33 19.3 °C 13.9 °C 999.3 hPa North 4.7 km/h 6.4 km/h 71% 0.0 mm 16 W/m2
08:38 19.1 °C 14.1 °C 999.0 hPa NW 3.2 km/h 11.3 km/h 73% 0.2 mm 18 W/m2
08:43 18.8 °C 14.1 °C 999.3 hPa North 7.9 km/h 12.9 km/h 74% 0.2 mm 21 W/m2
08:48 18.6 °C 14.1 °C 999.0 hPa East 4.7 km/h 9.7 km/h 75% 0.2 mm 21 W/m2
08:53 18.5 °C 14.2 °C 999.0 hPa North 1.4 km/h 3.2 km/h 76% 0.2 mm 32 W/m2
08:58 18.3 °C 14 °C 999.0 hPa NE 4.7 km/h 6.4 km/h 76% 0.2 mm 33 W/m2
09:03 18.3 °C 14.2 °C 999.0 hPa East 6.4 km/h 20.9 km/h 77% 0.2 mm 37 W/m2
09:08 18.2 °C 14.1 °C 999.3 hPa East 6.4 km/h 11.3 km/h 77% 0.2 mm 28 W/m2
09:13 18.1 °C 14.2 °C 999.3 hPa NNW 3.2 km/h 8 km/h 78% 0.5 mm 21 W/m2
09:18 18.1 °C 14.4 °C 999.3 hPa NE 3.2 km/h 22.5 km/h 79% 0.5 mm 18 W/m2
09:23 17.9 °C 14.2 °C 999.0 hPa East 4.7 km/h 11.3 km/h 79% 0.5 mm 26 W/m2
09:28 17.9 °C 14 °C 999.3 hPa ESE 3.2 km/h 22.5 km/h 78% 0.5 mm 28 W/m2
09:33 17.9 °C 14.2 °C 999.7 hPa NNE 4.7 km/h 14.5 km/h 79% 0.5 mm 16 W/m2
09:38 18 °C 13.9 °C 999.7 hPa NE 1.4 km/h 4.8 km/h 77% 0.2 mm 19 W/m2
09:43 18.1 °C 14 °C 999.7 hPa ENE 4.7 km/h 14.5 km/h 77% 0.2 mm 19 W/m2
09:48 18.1 °C 13.8 °C 999.7 hPa NNE 7.9 km/h 8 km/h 76% 0.2 mm 28 W/m2
09:53 18.2 °C 13.9 °C 999.7 hPa South 1.4 km/h 11.3 km/h 76% 0.2 mm 44 W/m2
09:58 18.2 °C 13.9 °C 999.7 hPa NNE 1.4 km/h 8 km/h 76% 0.2 mm 42 W/m2
10:03 18.2 °C 13.9 °C 999.7 hPa ENE 1.4 km/h 8 km/h 76% 0.2 mm 37 W/m2
10:08 18.2 °C 13.9 °C 999.7 hPa NE 4.7 km/h 8 km/h 76% 0.2 mm 44 W/m2
10:13 18.3 °C 13.8 °C 999.7 hPa North 3.2 km/h 8 km/h 75% 0.0 mm 47 W/m2
10:18 18.3 °C 14 °C 999.7 hPa ESE 1.4 km/h 6.4 km/h 76% 0.0 mm 37 W/m2
10:23 18.3 °C 14 °C 999.7 hPa ESE 4.7 km/h 8 km/h 76% 0.0 mm 42 W/m2
10:28 18.3 °C 13.8 °C 999.3 hPa SE 3.2 km/h 16.1 km/h 75% 0.0 mm 83 W/m2
10:33 18.4 °C 14.1 °C 999.3 hPa ENE 14.3 km/h 16.1 km/h 76% 0.0 mm 54 W/m2
10:38 18.5 °C 14 °C 999.7 hPa ESE 3.2 km/h 9.7 km/h 75% 0.0 mm 81 W/m2
10:43 18.6 °C 14.1 °C 999.7 hPa East 11.1 km/h 16.1 km/h 75% 0.0 mm 88 W/m2
10:48 18.8 °C 14.1 °C 999.7 hPa East 9.7 km/h 9.7 km/h 74% 0.0 mm 77 W/m2
10:53 18.9 °C 14.2 °C 999.7 hPa ENE 6.4 km/h 16.1 km/h 74% 0.0 mm 81 W/m2
10:58 19.1 °C 14.1 °C 999.7 hPa WNW 4.7 km/h 8 km/h 73% 0.0 mm 77 W/m2
11:03 19.2 °C 14 °C 999.7 hPa East 3.2 km/h 6.4 km/h 72% 0.0 mm 76 W/m2
11:08 19.3 °C 14.1 °C 999.3 hPa NE 6.4 km/h 9.7 km/h 72% 0.0 mm 102 W/m2
11:13 19.5 °C 14.1 °C 999.3 hPa East 3.2 km/h 4.8 km/h 71% 0.0 mm 114 W/m2
11:18 19.7 °C 14.1 °C 999.3 hPa North 3.2 km/h 11.3 km/h 70% 0.0 mm 105 W/m2
11:23 19.8 °C 14.2 °C 999.3 hPa ENE 13 km/h 12.9 km/h 70% 0.0 mm 83 W/m2
11:28 19.8 °C 13.9 °C 999.3 hPa ENE 3.2 km/h 12.9 km/h 69% 0.0 mm 81 W/m2
11:33 19.9 °C 14 °C 999.3 hPa WSW 1.4 km/h 11.3 km/h 69% 0.0 mm 81 W/m2
11:38 19.9 °C 13.8 °C 999.3 hPa ENE 7.9 km/h 16.1 km/h 68% 0.0 mm 83 W/m2
11:43 20.1 °C 14 °C 999.3 hPa North 3.2 km/h 9.7 km/h 68% 0.0 mm 93 W/m2
11:48 20.1 °C 14 °C 999.3 hPa East 4.7 km/h 8 km/h 68% 0.0 mm 93 W/m2
11:53 20.2 °C 14.1 °C 999.3 hPa ENE 6.4 km/h 9.7 km/h 68% 0.0 mm 120 W/m2
11:58 20.3 °C 14.4 °C 999.3 hPa SSE 20.9 km/h 20.9 km/h 69% 0.0 mm 109 W/m2
12:03 20.3 °C 14.2 °C 999.3 hPa North 4.7 km/h 9.7 km/h 68% 0.0 mm 125 W/m2
12:08 20.3 °C 14.2 °C 999.3 hPa North 3.2 km/h 17.7 km/h 68% 0.0 mm 146 W/m2
12:13 20.3 °C 14.2 °C 999.3 hPa NNE 7.9 km/h 14.5 km/h 68% 0.0 mm 156 W/m2
12:18 20.4 °C 14.1 °C 999.3 hPa NNW 7.9 km/h 8 km/h 67% 0.0 mm 158 W/m2
12:23 20.6 °C 14.3 °C 999.3 hPa NW 1.4 km/h 11.3 km/h 67% 0.0 mm 190 W/m2
12:29 20.8 °C 14.2 °C 999.3 hPa ENE 7.9 km/h 14.5 km/h 66% 0.0 mm 158 W/m2
12:34 20.9 °C 14.1 °C 999.0 hPa NNE 11.1 km/h 16.1 km/h 65% 0.0 mm 171 W/m2
12:39 21 °C 14.4 °C 999.0 hPa NNW 3.2 km/h 9.7 km/h 66% 0.0 mm 202 W/m2
12:44 21.2 °C 14.4 °C 999.0 hPa NNW 1.4 km/h 4.8 km/h 65% 0.0 mm 223 W/m2
12:49 21.2 °C 14.4 °C 999.3 hPa NE 3.2 km/h 9.7 km/h 65% 0.0 mm 144 W/m2
12:54 21.3 °C 14.2 °C 999.0 hPa WNW 7.9 km/h 12.9 km/h 64% 0.0 mm 139 W/m2
12:59 21.4 °C 14.3 °C 999.3 hPa NNE 4.7 km/h 24.1 km/h 64% 0.0 mm 90 W/m2
13:04 21.4 °C 14.3 °C 999.3 hPa SE 3.2 km/h 12.9 km/h 64% 0.0 mm 58 W/m2
13:09 21.3 °C 14 °C 999.7 hPa NE 4.7 km/h 24.1 km/h 63% 0.0 mm 65 W/m2
13:14 21.3 °C 14.2 °C 999.7 hPa NNE 1.4 km/h 8 km/h 64% 0.0 mm 83 W/m2
13:19 21.3 °C 14.2 °C 999.7 hPa NE 6.4 km/h 14.5 km/h 64% 0.0 mm 54 W/m2
13:24 21.2 °C 14.4 °C 999.7 hPa NNW 3.2 km/h 9.7 km/h 65% 0.0 mm 37 W/m2
13:29 20.9 °C 14.5 °C 1000.3 hPa WNW 6.4 km/h 14.5 km/h 67% 0.0 mm 14 W/m2
13:34 20.6 °C 14.9 °C 1001.4 hPa NW 17.7 km/h 22.5 km/h 70% 0.2 mm 19 W/m2
13:39 19.1 °C 15.2 °C 1001.4 hPa NW 6.4 km/h 29 km/h 78% 0.5 mm 32 W/m2
13:44 17.9 °C 15 °C 1001.7 hPa WNW 7.9 km/h 9.7 km/h 83% 0.5 mm 77 W/m2
13:49 17.3 °C 14.8 °C 1001.7 hPa West 6.4 km/h 29 km/h 85% 1.0 mm 63 W/m2
13:54 16.7 °C 14.5 °C 1001.7 hPa WNW 6.4 km/h 16.1 km/h 87% 1.3 mm 58 W/m2
13:59 16.4 °C 14.4 °C 1001.7 hPa NW 6.4 km/h 12.9 km/h 88% 1.5 mm 70 W/m2
14:04 16.3 °C 14.5 °C 1002.0 hPa WNW 13 km/h 14.5 km/h 89% 1.5 mm 107 W/m2
14:09 16.3 °C 14.7 °C 1002.0 hPa West 1.4 km/h 8 km/h 90% 1.8 mm 158 W/m2
14:14 16.3 °C 14.8 °C 1002.0 hPa West 14.5 km/h 14.5 km/h 91% 2.0 mm 171 W/m2
14:19 16.3 °C 14.8 °C 1002.0 hPa WSW 4.7 km/h 8 km/h 91% 2.3 mm 202 W/m2
14:24 16.4 °C 14.9 °C 1002.0 hPa North 3.2 km/h 8 km/h 91% 2.3 mm 213 W/m2
14:29 16.4 °C 14.9 °C 1002.0 hPa North 4.7 km/h 11.3 km/h 91% 2.3 mm 193 W/m2
14:34 16.4 °C 14.9 °C 1002.0 hPa WNW 6.4 km/h 6.4 km/h 91% 2.3 mm 237 W/m2
14:39 16.4 °C 14.9 °C 1002.0 hPa NW 1.4 km/h 6.4 km/h 91% 2.3 mm 250 W/m2
14:44 16.6 °C 15.1 °C 1002.0 hPa WNW 6.4 km/h 12.9 km/h 91% 2.0 mm 248 W/m2
14:49 16.7 °C 15.4 °C 1002.0 hPa NW 4.7 km/h 6.4 km/h 92% 1.5 mm 227 W/m2
14:54 16.7 °C 15.2 °C 1002.0 hPa ENE 6.4 km/h 9.7 km/h 91% 1.5 mm 176 W/m2
14:59 16.7 °C 15.2 °C 1002.0 hPa WNW 4.7 km/h 8 km/h 91% 1.3 mm 149 W/m2
15:04 16.7 °C 15.2 °C 1002.4 hPa East 1.4 km/h 6.4 km/h 91% 1.0 mm 98 W/m2
15:09 16.7 °C 15.2 °C 1002.4 hPa NNE 3.2 km/h 3.2 km/h 91% 0.8 mm 146 W/m2
15:14 16.7 °C 15.2 °C 1002.7 hPa WNW 6.4 km/h 9.7 km/h 91% 0.5 mm 174 W/m2
15:19 16.7 °C 15.2 °C 1003.0 hPa NW 7.9 km/h 12.9 km/h 91% 0.5 mm 81 W/m2
15:24 16.6 °C 15.1 °C 1003.0 hPa North 3.2 km/h 6.4 km/h 91% 0.2 mm 62 W/m2
15:29 16.6 °C 15.1 °C 1003.0 hPa Calm   6.4 km/h 91% 0.2 mm 118 W/m2
15:34 16.6 °C 15.1 °C 1003.0 hPa NE 1.4 km/h 1.6 km/h 91% 0.5 mm 91 W/m2
15:39 16.6 °C 15.1 °C 1003.4 hPa Calm   9.7 km/h 91% 0.2 mm 84 W/m2
15:44 16.6 °C 15.3 °C 1003.4 hPa NW 4.7 km/h 6.4 km/h 92% 0.5 mm 120 W/m2
15:49 16.6 °C 15.3 °C 1003.4 hPa NE 3.2 km/h 8 km/h 92% 0.5 mm 105 W/m2
15:54 16.6 °C 15.3 °C 1003.4 hPa North 1.4 km/h 6.4 km/h 92% 0.5 mm 88 W/m2
15:59 16.5 °C 15.2 °C 1003.4 hPa ENE 3.2 km/h 6.4 km/h 92% 0.5 mm 93 W/m2
16:04 16.6 °C 15.3 °C 1003.7 hPa NE 3.2 km/h 6.4 km/h 92% 0.8 mm 70 W/m2
16:09 16.6 °C 15.3 °C 1003.7 hPa WNW 7.9 km/h 14.5 km/h 92% 0.8 mm 67 W/m2
16:14 16.5 °C 15.2 °C 1004.1 hPa East 6.4 km/h 8 km/h 92% 1.0 mm 69 W/m2
16:19 16.5 °C 15.2 °C 1004.1 hPa West 4.7 km/h 9.7 km/h 92% 1.0 mm 76 W/m2
16:24 16.5 °C 15.2 °C 1004.1 hPa ENE 3.2 km/h 6.4 km/h 92% 1.3 mm 60 W/m2
16:29 16.4 °C 15.1 °C 1004.1 hPa ENE 4.7 km/h 4.8 km/h 92% 1.5 mm 98 W/m2
16:34 16.4 °C 15.1 °C 1004.4 hPa NE 4.7 km/h 6.4 km/h 92% 1.3 mm 105 W/m2
16:39 16.4 °C 15.1 °C 1004.4 hPa North 7.9 km/h 8 km/h 92% 1.3 mm 107 W/m2
16:44 16.5 °C 15.2 °C 1004.4 hPa ENE 4.7 km/h 6.4 km/h 92% 1.0 mm 125 W/m2
16:49 16.5 °C 15.2 °C 1004.4 hPa ESE 3.2 km/h 8 km/h 92% 1.0 mm 70 W/m2
16:54 16.4 °C 15.1 °C 1004.4 hPa NNW 1.4 km/h 6.4 km/h 92% 1.0 mm 70 W/m2
16:59 16.5 °C 15.2 °C 1004.7 hPa NW 4.7 km/h 4.8 km/h 92% 1.0 mm 33 W/m2
17:04 16.4 °C 15.1 °C 1004.7 hPa WSW 1.4 km/h 3.2 km/h 92% 1.5 mm 46 W/m2
17:09 16.3 °C 15 °C 1004.7 hPa NNW 3.2 km/h 11.3 km/h 92% 1.5 mm 35 W/m2
17:14 16.2 °C 14.7 °C 1005.1 hPa WNW 6.4 km/h 6.4 km/h 91% 1.8 mm 47 W/m2
17:19 16.2 °C 14.7 °C 1005.1 hPa NW 6.4 km/h 6.4 km/h 91% 1.8 mm 62 W/m2
17:24 16.1 °C 14.6 °C 1005.1 hPa NW 3.2 km/h 6.4 km/h 91% 1.5 mm 49 W/m2
17:29 16 °C 14.5 °C 1005.1 hPa NNE 4.7 km/h 8 km/h 91% 1.5 mm 53 W/m2
17:34 15.9 °C 14.4 °C 1005.1 hPa East 3.2 km/h 4.8 km/h 91% 1.5 mm 67 W/m2
17:39 15.9 °C 14.4 °C 1005.4 hPa WNW 4.7 km/h 8 km/h 91% 1.5 mm 58 W/m2
17:44 15.9 °C 14.4 °C 1005.8 hPa Calm   4.8 km/h 91% 1.5 mm 53 W/m2
17:49 15.9 °C 14.4 °C 1006.1 hPa NW 3.2 km/h 6.4 km/h 91% 1.5 mm 28 W/m2
17:54 15.8 °C 14.3 °C 1006.4 hPa NE 1.4 km/h 8 km/h 91% 1.3 mm 30 W/m2
17:59 15.5 °C 13.7 °C 1006.1 hPa WSW 3.2 km/h 24.1 km/h 89% 1.3 mm 28 W/m2
18:04 15.2 °C 13.2 °C 1006.4 hPa NW 19.5 km/h 19.3 km/h 88% 0.5 mm 26 W/m2
18:09 15 °C 13.2 °C 1006.8 hPa WNW 4.7 km/h 24.1 km/h 89% 0.5 mm 16 W/m2
18:14 14.8 °C 13 °C 1006.4 hPa SSW 4.7 km/h 12.9 km/h 89% 0.2 mm 18 W/m2
18:19 14.5 °C 12.7 °C 1007.1 hPa West 4.7 km/h 9.7 km/h 89% 0.2 mm 18 W/m2
18:24 14.3 °C 12.5 °C 1007.5 hPa WNW 7.9 km/h 12.9 km/h 89% 0.2 mm 18 W/m2
18:29 14.2 °C 12.4 °C 1007.8 hPa West 4.7 km/h 16.1 km/h 89% 0.2 mm 12 W/m2
18:34 14 °C 12.2 °C 1007.5 hPa West 6.4 km/h 14.5 km/h 89% 0.2 mm 16 W/m2
18:39 13.8 °C 12 °C 1007.5 hPa WNW 6.4 km/h 8 km/h 89% 0.2 mm 14 W/m2
18:44 13.7 °C 12.1 °C 1008.1 hPa West 4.7 km/h 17.7 km/h 90% 0.2 mm 11 W/m2
18:49 13.6 °C 12 °C 1008.5 hPa WSW 4.7 km/h 12.9 km/h 90% 0.2 mm 9 W/m2
18:54 13.5 °C 11.9 °C 1008.1 hPa WNW 7.9 km/h 9.7 km/h 90% 0.2 mm 5 W/m2
18:59 13.4 °C 11.8 °C 1008.8 hPa WSW 1.4 km/h 12.9 km/h 90% 0.2 mm 0 W/m2
19:04 13.3 °C 11.7 °C 1009.1 hPa SW 6.4 km/h 12.9 km/h 90% 0.0 mm 0 W/m2
19:09 13.2 °C 11.6 °C 1009.1 hPa WSW 3.2 km/h 8 km/h 90% 0.0 mm 0 W/m2
19:14 13.1 °C 11.5 °C 1008.8 hPa WNW 7.9 km/h 12.9 km/h 90% 0.0 mm 0 W/m2
19:19 13 °C 11.6 °C 1009.1 hPa WNW 1.4 km/h 3.2 km/h 91% 0.0 mm 0 W/m2
19:24 12.9 °C 11.5 °C 1009.1 hPa WSW 4.7 km/h 12.9 km/h 91% 0.0 mm 0 W/m2
19:29 12.8 °C 11.4 °C 1009.5 hPa NW 1.4 km/h 6.4 km/h 91% 0.0 mm 0 W/m2
19:35 12.8 °C 11.4 °C 1009.8 hPa West 3.2 km/h 8 km/h 91% 0.0 mm 0 W/m2
19:40 12.8 °C 11.4 °C 1010.2 hPa West 3.2 km/h 9.7 km/h 91% 0.0 mm 0 W/m2
19:45 12.8 °C 11.4 °C 1010.2 hPa WNW 1.4 km/h 6.4 km/h 91% 0.0 mm 0 W/m2
19:50 12.7 °C 11.3 °C 1010.5 hPa West 1.4 km/h 8 km/h 91% 0.0 mm 0 W/m2
19:55 12.7 °C 11.3 °C 1010.2 hPa Calm   8 km/h 91% 0.0 mm 0 W/m2
20:00 12.7 °C 11.3 °C 1010.2 hPa WNW 3.2 km/h 3.2 km/h 91% 0.0 mm 0 W/m2
20:05 12.6 °C 11.2 °C 1010.8 hPa Calm   6.4 km/h 91% 0.0 mm 0 W/m2
20:10 12.6 °C 11.2 °C 1010.8 hPa West 4.7 km/h 6.4 km/h 91% 0.0 mm 0 W/m2
20:15 12.6 °C 11.2 °C 1011.2 hPa Calm   6.4 km/h 91% 0.0 mm 0 W/m2
20:20 12.5 °C 11.1 °C 1011.2 hPa Calm   4.8 km/h 91% 0.0 mm 0 W/m2
20:25 12.5 °C 11.1 °C 1011.2 hPa NW 1.4 km/h 6.4 km/h 91% 0.0 mm 0 W/m2
20:30 12.5 °C 11.2 °C 1011.2 hPa Calm   3.2 km/h 92% 0.0 mm 0 W/m2
20:35 12.4 °C 11.1 °C 1011.9 hPa NW 4.7 km/h 9.7 km/h 92% 0.0 mm 0 W/m2
20:40 12.4 °C 11.1 °C 1011.5 hPa Calm   3.2 km/h 92% 0.0 mm 0 W/m2
20:45 12.4 °C 11.1 °C 1011.5 hPa Calm   8 km/h 92% 0.0 mm 0 W/m2
20:50 12.4 °C 11.1 °C 1011.5 hPa Calm   6.4 km/h 92% 0.0 mm 0 W/m2
20:55 12.4 °C 11.1 °C 1011.2 hPa West 3.2 km/h 4.8 km/h 92% 0.0 mm 0 W/m2
21:00 12.4 °C 11.1 °C 1011.5 hPa Calm     92% 0.0 mm 0 W/m2
21:05 12.4 °C 11.1 °C 1011.2 hPa Calm   3.2 km/h 92% 0.0 mm 0 W/m2
21:10 12.4 °C 11.1 °C 1011.5 hPa NNE 1.4 km/h 1.6 km/h 92% 0.0 mm 0 W/m2
21:15 12.4 °C 11.1 °C 1011.9 hPa Calm   4.8 km/h 92% 0.0 mm 0 W/m2
21:20 12.4 °C 11.1 °C 1011.9 hPa West 1.4 km/h 3.2 km/h 92% 0.0 mm 0 W/m2
21:25 12.3 °C 11 °C 1011.9 hPa Calm   4.8 km/h 92% 0.0 mm 0 W/m2
21:30 12.4 °C 11.1 °C 1012.2 hPa WNW 1.4 km/h 3.2 km/h 92% 0.0 mm 0 W/m2
21:35 12.4 °C 11.3 °C 1012.5 hPa NW 3.2 km/h 9.7 km/h 93% 0.0 mm 0 W/m2
21:40 12.4 °C 11.3 °C 1012.5 hPa NW 3.2 km/h 4.8 km/h 93% 0.0 mm 0 W/m2
21:45 12.4 °C 11.3 °C 1012.5 hPa Calm   3.2 km/h 93% 0.0 mm 0 W/m2
21:50 12.4 °C 11.3 °C 1012.9 hPa Calm   4.8 km/h 93% 0.0 mm 0 W/m2
21:55 12.4 °C 11.3 °C 1012.9 hPa WNW 1.4 km/h 3.2 km/h 93% 0.0 mm 0 W/m2
22:00 12.4 °C 11.3 °C 1012.9 hPa West 1.4 km/h 1.6 km/h 93% 0.0 mm 0 W/m2
22:05 12.4 °C 11.3 °C 1012.9 hPa Calm   3.2 km/h 93% 0.0 mm 0 W/m2
22:10 12.4 °C 11.1 °C 1012.9 hPa WNW 1.4 km/h 4.8 km/h 92% 0.0 mm 0 W/m2
22:15 12.4 °C 11.3 °C 1012.9 hPa NW 3.2 km/h 6.4 km/h 93% 0.0 mm 0 W/m2
22:20 12.3 °C 11.2 °C 1012.9 hPa NW 3.2 km/h 6.4 km/h 93% 0.0 mm 0 W/m2
22:25 12.4 °C 11.1 °C 1012.9 hPa Calm   4.8 km/h 92% 0.0 mm 0 W/m2
22:30 12.3 °C 11 °C 1012.9 hPa ESE 1.4 km/h 4.8 km/h 92% 0.0 mm 0 W/m2
22:35 12.3 °C 11 °C 1012.9 hPa West 3.2 km/h 3.2 km/h 92% 0.0 mm 0 W/m2
22:40 12.3 °C 11 °C 1012.9 hPa WNW 3.2 km/h 3.2 km/h 92% 0.0 mm 0 W/m2
22:45 12.2 °C 10.9 °C 1012.9 hPa SSW 1.4 km/h 1.6 km/h 92% 0.0 mm 0 W/m2
22:50 12.2 °C 11.1 °C 1012.9 hPa SSW 1.4 km/h 1.6 km/h 93% 0.0 mm 0 W/m2
22:55 12.2 °C 11.1 °C 1012.9 hPa Calm     93% 0.0 mm 0 W/m2
23:00 12.2 °C 11.1 °C 1012.9 hPa East 1.4 km/h 3.2 km/h 93% 0.0 mm 0 W/m2
23:05 12.2 °C 11.1 °C 1012.9 hPa NE 1.4 km/h 3.2 km/h 93% 0.0 mm 0 W/m2
23:10 12.2 °C 11.1 °C 1012.9 hPa Calm   3.2 km/h 93% 0.0 mm 0 W/m2
23:15 12.2 °C 11.1 °C 1013.2 hPa NNW 1.4 km/h 1.6 km/h 93% 0.0 mm 0 W/m2
23:20 12.2 °C 11.1 °C 1013.2 hPa Calm   3.2 km/h 93% 0.0 mm 0 W/m2
23:25 12.2 °C 11.1 °C 1013.2 hPa NW 1.4 km/h 3.2 km/h 93% 0.0 mm 0 W/m2
23:30 12.2 °C 11.1 °C 1013.2 hPa Calm   3.2 km/h 93% 0.0 mm 0 W/m2
23:35 12.2 °C 11.1 °C 1013.2 hPa ESE 1.4 km/h 4.8 km/h 93% 0.0 mm 0 W/m2
23:40 12.2 °C 11.1 °C 1013.2 hPa Calm   1.6 km/h 93% 0.0 mm 0 W/m2
23:45 12.2 °C 11.1 °C 1013.2 hPa Calm   1.6 km/h 93% 0.0 mm 0 W/m2
23:50 12.2 °C 11.1 °C 1013.5 hPa Calm   1.6 km/h 93% 0.0 mm 0 W/m2
23:55 12.2 °C 11.1 °C 1013.5 hPa Calm     93% 0.0 mm 0 W/m2
Juneau County Weather
Compliments of Weather Underground - 4 mb